Regional Weather Roundup
Issued by NWS

Home | Current Version | Previous Version | Graphics & Text | Print | Product List | Glossary On
Versions: 1 2 3 4 5 6 7 8 9 10 11 12 13 14 15 16 17 18 19 20 21 22 23 24 25 26 27 28 29 30 31 32 33 34 35 36 37 38 39 40 41 42 43 44 45 46 47 48 49 50
000
ASUS45 KBOU 060507
RWRCO

WEATHER ROUNDUP FOR COLORADO
NATIONAL WEATHER SERVICE DENVER/BOULDER CO
1100 PM MDT THU MAY 05 2016

NOTE: "FAIR" INDICATES FEW OR NO CLOUDS BELOW 12000 FEET WITH NO
SIGNIFICANT WEATHER AND/OR OBSTRUCTIONS TO VISIBILITY.

COZ001>005-013-030-031-060600-
...NORTHWEST COLORADO...

CITY           SKY/WX    TMP DP  RH WIND       PRES   REMARKS
CRAIG          FAIR      49  36  61 CALM      30.01S
HAYDEN         FAIR      57  27  30 E6        30.03F
MEEKER         FAIR      57  32  38 E9        30.01S
MOUNT WERNER   NOT AVBL
STEAMBOAT SPGS FAIR      54  31  41 CALM      30.06S
WALDEN         FAIR      45  28  53 SE5       30.18S
$$

COZ006>008-011-060600-
...WEST CENTRAL VALLEYS...

CITY           SKY/WX    TMP DP  RH WIND       PRES   REMARKS
GRAND JUNCTION FAIR      69  32  25 N13       29.89S
MONTROSE       FAIR      63  30  28 SE10      29.98S
EAGLE          FAIR      61  27  27 SE7       30.07S
RIFLE          FAIR      60  33  36 E5        29.95F
DELTA          NOT AVBL
NUCLA          NOT AVBL
$$

COZ017>023-064>068-060600-
...SOUTHWEST COLORADO...

CITY           SKY/WX    TMP DP  RH WIND       PRES   REMARKS
DURANGO        MOCLDY    65  24  21 S9        30.07R
CORTEZ         FAIR      71  30  21 SE21G31   29.97F
PAGOSA SPRINGS FAIR      51  30  44 NE7       30.16F
TELLURIDE      CLOUDY    55  23  28 SE7       30.21R
WOLF CREEK PAS MOCLDY    39  23  52 S9G17     30.44F
$$

COZ009-010-012-014-032>034-037-058>063-060600-
...CENTRAL COLORADO...

CITY           SKY/WX    TMP DP  RH WIND       PRES   REMARKS
ASPEN          FAIR      52  28  39 SW8       30.13S
BUENA VISTA    FAIR      47  31  53 W10       30.19S
COPPER MTN     NOT AVBL
BERTHOUD PASS  FAIR      34  27  75 SE30G39   30.44S WCI  20
COTTONWOOD PAS FAIR      54  21  28 SE9       30.29F
GUNNISON       FAIR      52  27  37 N9        30.16F
KREMMLING      FAIR      50  28  43 CALM      30.13S
LEADVILLE      FAIR      42  17  36 N3        30.28S
MONARCH PASS   FAIR      41  21  45 E12G17    30.52F
SALIDA         FAIR      53  27  35 SW12      30.24R
SUNLIGHT       FAIR      45  27  49 CALM      30.33F
WILKERSON PASS FAIR      41  25  52 S12G21    30.40F
$$

COZ069>075-060600-
...SAN LUIS VALLEY/SANGRE DE CRISTO MOUNTAINS...

CITY           SKY/WX    TMP DP  RH WIND       PRES   REMARKS
ALAMOSA        FAIR      52  34  50 SW6       30.15S
LA VETA PASS   FAIR      46  23  39 S9        30.33S
SAGUACHE       FAIR      50  30  46 NE5       30.17S
$$

COZ035-036-038>040-060600-
...NORTHERN COLORADO FRONT RANGE...

CITY           SKY/WX    TMP DP  RH WIND       PRES   REMARKS
DENVER INTL AP FAIR      60  39  45 S17       30.03S
DMNS CITY PARK   N/A     67  35  30 SE10G23   30.03S
AURORA         FAIR      62  39  44 S17       30.05S
FRONT RANGE AP NOT AVBL
ERIE MUNI ARPT FAIR      56  41  58 NW3       30.01S
BOULDER MUN AP FAIR      63  36  36 CALM      30.01F
CENTENNIAL     MOCLDY    60  38  43 SE12      30.07R
BROOMFIELD     NOT AVBL
FORT COLLINS   FAIR      61  39  44 SE8       30.02S
LONGMONT       FAIR      60  40  48 W6        30.03S
$$

COZ041-046-047-076>085-087-088-060600-
...PIKES PEAK/PALMER DIVIDE AND SOUTHERN FOOTHILLS...

CITY           SKY/WX    TMP DP  RH WIND       PRES   REMARKS
COLO. SPRINGS  FAIR      60  37  42 VRB3      30.13S
A. F. ACADEMY  FAIR      57  37  47 S6        30.14S
SCHRIEVER AFB  NOT AVBL
ELLICOTT       FAIR     N/A N/A N/A SE15      30.10F
FALCON         NOT AVBL
FORT CARSON    FAIR      61  40  44 VRB2      30.10S
LIMON          FAIR      50  41  71 SE7       30.09S
MONUMENT HILL  FAIR      52  37  58 S17       30.16F
TRINIDAD       FAIR      68  20  16 S18       30.05F
$$

COZ042>045-048>051-090-091-060600-
...NORTHEAST COLORADO...

CITY           SKY/WX    TMP DP  RH WIND       PRES   REMARKS
GREELEY ARPT   FAIR      61  43  51 S9        30.01S
AKRON          FAIR      61  42  49 S21G26    30.04R
BURLINGTON     FAIR      56  45  66 S12       30.06S
WRAY           NOT AVBL
STERLING       FAIR      61  43  51 S10       29.99S
HOLYOKE        NOT AVBL
FORT MORGAN    FAIR      59  41  50 SE9       30.03R
$$

COZ086-089-092>099-060600-
...SOUTHEAST COLORADO...

CITY           SKY/WX    TMP DP  RH WIND       PRES   REMARKS
PUEBLO         FAIR      64  42  44 E7        30.00S
LA JUNTA       FAIR      62  45  53 E10       29.99F
LAMAR          FAIR      63  47  55 SE13      29.99S
SPRINGFIELD      N/A     58  45  62 S17       30.05R
$$



USA.gov is the U.S. government's official web portal to all federal, state and local government web resources and services.